| time (UTC) | temp F | wind direction | speed MPH | gust MPH | rain 1hr in | rain 24hr in | rain mn in | humidity % | barometer mb |
| 20260503221553 | 77 | 333 | 0.0 | 3.0 | 0.00 | 0.00 | 0.00 | 44 | 1012.3 |
| 20260503220056 | 76 | 285 | 0.0 | 3.0 | 0.00 | 0.00 | 0.00 | 42 | 1012.5 |
| 20260503214552 | 75 | 300 | 1.0 | 4.0 | 0.00 | 0.00 | 0.00 | 43 | 1012.8 |
| 20260503213043 | 74 | 309 | 3.0 | 6.0 | 0.00 | 0.00 | 0.00 | 44 | 1013.0 |
| 20260503211543 | 75 | 347 | 2.0 | 6.0 | 0.00 | 0.00 | 0.00 | 42 | 1013.1 |
| 20260503210046 | 75 | 14 | 2.0 | 7.0 | 0.00 | 0.00 | 0.00 | 41 | 1013.2 |
| 20260503204531 | 75 | 287 | 3.0 | 6.0 | 0.00 | 0.00 | 0.00 | 42 | 1013.2 |
| 20260503203032 | 76 | 16 | 2.0 | 6.0 | 0.00 | 0.00 | 0.00 | 42 | 1013.2 |
| 20260503201538 | 76 | 259 | 3.0 | 6.0 | 0.00 | 0.00 | 0.00 | 45 | 1013.2 |
| 20260503200040 | 75 | 234 | 1.0 | 4.0 | 0.00 | 0.00 | 0.00 | 45 | 1013.4 |
| 20260503194524 | 75 | 236 | 2.0 | 5.0 | 0.00 | 0.00 | 0.00 | 47 | 1013.6 |
| 20260503193024 | 75 | 255 | 2.0 | 6.0 | 0.00 | 0.00 | 0.00 | 44 | 1013.9 |
| 20260503191527 | 75 | 262 | 0.0 | 3.0 | 0.00 | 0.00 | 0.00 | 44 | 1014.0 |
| 20260503190013 | 74 | 233 | 0.0 | 3.0 | 0.00 | 0.00 | 0.00 | 46 | 1014.1 |
| 20260503184512 | 73 | 252 | 0.0 | 4.0 | 0.00 | 0.00 | 0.00 | 50 | 1014.3 |
| 20260503183011 | 72 | 229 | 0.0 | 6.0 | 0.00 | 0.00 | 0.00 | 50 | 1014.5 |
| 20260503181534 | 72 | 229 | 2.0 | 5.0 | 0.00 | 0.00 | 0.00 | 52 | 1014.6 |
| 20260503180003 | 72 | 227 | 0.0 | 3.0 | 0.00 | 0.00 | 0.00 | 50 | 1014.8 |
| 20260503174504 | 71 | 239 | 0.0 | 3.0 | 0.00 | 0.00 | 0.00 | 49 | 1015.0 |
| 20260503173007 | 70 | 232 | 1.0 | 5.0 | 0.00 | 0.00 | 0.00 | 50 | 1015.1 |
| 20260503171521 | 70 | 241 | 2.0 | 6.0 | 0.00 | 0.00 | 0.00 | 53 | 1015.1 |
| 20260503170120 | 69 | 243 | 1.0 | 5.0 | 0.00 | 0.00 | 0.00 | 52 | 1015.1 |
| 20260503160113 | 69 | 193 | 0.0 | 4.0 | 0.00 | 0.00 | 0.00 | 55 | 1015.4 |
| 20260503150110 | 64 | 200 | 1.0 | 2.0 | 0.00 | 0.00 | 0.00 | 66 | 1015.8 |
| 20260503140104 | 54 | 188 | 2.0 | 4.0 | 0.00 | 0.00 | 0.00 | 77 | 1015.5 |
| 20260503120133 | 48 | 191 | 0.0 | 2.0 | 0.00 | 0.00 | 0.00 | 84 | 1015.3 |
| 20260503110118 | 52 | 280 | 0.0 | 0.0 | 0.00 | 0.00 | 0.00 | 75 | 1015.3 |
| 20260503100110 | 59 | 65 | 0.0 | 4.0 | 0.00 | 0.00 | 0.00 | 60 | 1014.9 |
| 20260503090109 | 54 | 195 | 0.0 | 1.0 | 0.00 | 0.00 | 0.00 | 71 | 1014.9 |
| 20260503081605 | 54 | 185 | 2.0 | 4.0 | 0.00 | 0.00 | 0.00 | 73 | 1014.9 |
| 20260503080107 | 53 | 182 | 1.0 | 3.0 | 0.00 | 0.00 | 0.00 | 75 | 1014.8 |
| 20260503071604 | 51 | 203 | 0.0 | 2.0 | 0.00 | 0.00 | 0.00 | 84 | 1014.8 |
| 20260503060114 | 52 | 198 | 0.0 | 2.0 | 0.00 | 0.00 | 0.00 | 84 | 1014.7 |
| 20260503054600 | 53 | 197 | 0.0 | 1.0 | 0.00 | 0.00 | 0.00 | 82 | 1014.8 |
| 20260503053103 | 55 | 198 | 0.0 | 1.0 | 0.00 | 0.00 | 0.00 | 78 | 1014.8 |
| 20260503051502 | 57 | 197 | 0.0 | 1.0 | 0.00 | 0.00 | 0.00 | 73 | 1014.8 |
| 20260503050110 | 59 | 200 | 0.0 | 2.0 | 0.00 | 0.00 | 0.00 | 66 | 1014.8 |
| 20260503044612 | 59 | 211 | 2.0 | 3.0 | 0.00 | 0.00 | 0.00 | 67 | 1014.7 |
| 20260503043100 | 60 | 182 | 0.0 | 2.0 | 0.00 | 0.00 | 0.00 | 65 | 1014.5 |
| 20260503041614 | 59 | 188 | 1.0 | 2.0 | 0.00 | 0.00 | 0.00 | 65 | 1014.4 |
| 20260503040104 | 60 | 325 | 0.0 | 0.0 | 0.00 | 0.00 | 0.00 | 71 | 1014.3 |
| 20260503034550 | 62 | 325 | 0.0 | 0.0 | 0.00 | 0.00 | 0.00 | 69 | 1014.1 |
| 20260503033104 | 63 | 325 | 0.0 | 0.0 | 0.00 | 0.00 | 0.00 | 64 | 1013.9 |
| 20260503031605 | 66 | 325 | 0.0 | 0.0 | 0.00 | 0.00 | 0.00 | 60 | 1013.8 |
| 20260503030109 | 69 | 325 | 0.0 | 0.0 | 0.00 | 0.00 | 0.00 | 54 | 1013.8 |
| 20260503024603 | 72 | 325 | 0.0 | 0.0 | 0.00 | 0.00 | 0.00 | 47 | 1013.8 |
| 20260503023106 | 73 | 325 | 0.0 | 0.0 | 0.00 | 0.00 | 0.00 | 47 | 1013.8 |
| 20260503021502 | 73 | 325 | 0.0 | 1.0 | 0.00 | 0.00 | 0.00 | 46 | 1013.9 |
| 20260503020111 | 74 | 325 | 0.0 | 2.0 | 0.00 | 0.00 | 0.00 | 46 | 1014.0 |
| 20260503014554 | 75 | 271 | 0.0 | 1.0 | 0.00 | 0.00 | 0.00 | 42 | 1014.1 |
| 20260503013059 | 77 | 257 | 0.0 | 1.0 | 0.00 | 0.00 | 0.00 | 37 | 1014.2 |
| 20260503011610 | 78 | 198 | 0.0 | 1.0 | 0.00 | 0.00 | 0.00 | 33 | 1014.3 |
| 20260503010112 | 77 | 249 | 0.0 | 1.0 | 0.00 | 0.00 | 0.00 | 37 | 1014.4 |
| 20260503004603 | 76 | 331 | 0.0 | 4.0 | 0.00 | 0.00 | 0.00 | 35 | 1014.4 |
| 20260503003105 | 76 | 304 | 0.0 | 1.0 | 0.00 | 0.00 | 0.00 | 38 | 1014.4 |
| 20260503001501 | 75 | 297 | 0.0 | 5.0 | 0.00 | 0.00 | 0.00 | 41 | 1014.6 |
| 20260503000108 | 75 | 242 | 1.0 | 5.0 | 0.00 | 0.00 | 0.00 | 38 | 1014.6 |
| 20260502234555 | 75 | 324 | 0.0 | 4.0 | 0.00 | 0.00 | 0.00 | 43 | 1014.8 |
| 20260502233053 | 75 | 316 | 1.0 | 4.0 | 0.00 | 0.00 | 0.00 | 38 | 1015.0 |
| 20260502231558 | 75 | 237 | 0.0 | 4.0 | 0.00 | 0.00 | 0.00 | 39 | 1015.1 |
| 20260502230059 | 74 | 227 | 1.0 | 6.0 | 0.00 | 0.00 | 0.00 | 41 | 1015.4 |
| 20260502224544 | 73 | 143 | 3.0 | 6.0 | 0.00 | 0.00 | 0.00 | 43 | 1015.7 |
| 20260502223047 | 73 | 236 | 0.0 | 4.0 | 0.00 | 0.00 | 0.00 | 43 | 1016.0 |